Location: 22
(39.7117°N, 89.5929°W)
Time: 09:05:40
(UTC-05:00)

Vanguard 1 - Pass Details

Date: 15 August 2025
Orbit: 654 x 3817 km, 34.2° (Epoch: 12 April)

Event Time Altitude Azimuth Distance (km) Brightness Sun altitude
Rises 21:40:55 0° 271° (W) 7,696 15.5 -19.0°
Reaches altitude 10° 21:46:38 10° 269° (W) 6,379 14.9 -19.8°
Maximum altitude 22:05:00 67° 193° (SSW) 2,398 11.8 -22.5°
Enters shadow 22:10:43 34° 123° (ESE) 2,694 11.7 -23.3°
Drops below altitude 10° 22:14:54 10° 113° (ESE) 3,658 - -23.9°
Sets 22:17:16 0° 110° (ESE) 4,346 - -24.2°
